Volver al catálogo

CZ-6A DEB

ActivoSSO
NORAD 54573·DEBRIS·🇨🇳 China

Lanzado Nov 11, 2022 desde Taiyuan Satellite Launch Center

Loading…

Próximos Pases (próximas 24 horas)

TLE

ActualizadoSource: Space-Track

Época: Sep 14, 2026, 03:19 UTC

1 54573U 22151LZ  26257.13850428  .00002529  00000-0  57647-3 0  9998
2 54573  98.6025 313.5834 0092604  33.3338 327.3642 14.54152371201954

Sigue CZ-6A DEB en tiempo real con AllMySat

Download on the App Store